Location: �chenoz-la-M�line
(47.6009°N, 6.1354°E)
Time: 11:15:34
(UTC+00:00)

Cosmos 1980 - Pass Details

Date: 27 January 2021
Orbit: 840 x 846 km, 71.0° (Epoch: 02 March)

Event Time Altitude Azimuth Distance (km) Brightness Sun altitude
Exits shadow 04:17:19 77° 31° (NNE) 867 3.7 -28.7°
Drops below altitude 10° 04:22:33 10° 28° (NNE) 2,468 6.5 -27.8°
Sets 04:25:01 0° 28° (NNE) 3,406 7.2 -27.4°
